STARLINK-5515, 56884

Orbit data source: Space-Track

STARLINK-5515, 56884 is a payload satellite owned by SpaceX/Seattle (US) in LEO that was launched on Mon, 12 Jun 2023 UTC via an FALCON 9 launch vehicle from the Air Force Eastern Test Range (AFETR). Payload-class satellites include a variety of spacecraft equipped with specific instruments for various scientific and technological missions. These include communications satellites like Starlink; space stations such as the ISS; scientific satellites like the Hubble; Earth observation satellites from companies like Planet Labs, Umbra, and HawkEye 360; GPS; miniature CubeSats for education and research; and military/defense satellites.

Loading next visibility...
Identifier
56884, 2023-083J
Orbit
LEO
Country
Flag of USUS
Related business
Manufacturer
SpaceX/Seattle
Mission
Operational Commercial Communications
Bus & Motor
STARLINK, Unknown motor
Mass
305 kg wet, ~290 kg dry
Launch date (UTC)
2023-06-12 (3 years ago)
Launch vehicle
FALCON 9
Launch site
Air Force Eastern Test Range (AFETR)
Object type
Payload
Rocket body
Debris
Shape & HBR
Box + 1 Pan, 10.1 m
Radar Cross Section
11.087 m², Large (>1 m²)

Expand to show TLE details & history
Last TLE update: 3 days ago

TLE from 3 days ago
0 STARLINK-5515
1 56884U 23083J   26170.88123110  .00000170  00000-0  15724-4 0  9998
2 56884  43.0041 227.6960 0001685 267.1323  92.9335 15.27578027167268
Epoch: 2026-06-19T21:08Z
TLE epoch observation values (Epoch: 2026-06-19T21:08:58.367Z)
Latitude
-0.00006°
Longitude
2.34889°
Altitude
482.89 km
Speed
7.626 km/s
True Right ascension
15h 10m 47s
True Declination
0° 00' 00"
Sunlit
Object was in full shadow at epoch
Visualization orbit readout
Latitude
Unknown
Longitude
Unknown
Altitude
Unknown
Speed
Unknown
Apparent Right ascension
Unknown
Apparent Declination
Unknown
Sunlit
N/A
Visualization observer readout
Local Sidereal Time
21:30:18
Azimuth
Unknown
Elevation
Unknown
Doppler factor
Unknown
Orbital elements
Apogee altitude
486.156 km
Perigee altitude
483.843 km
Semi-major axis
6,863.136 km
Eccentricity
0.00017
Inclination
43.0041°
RAAN
227.696°
Arg. of periapsis
267.1323°
True anomaly
92.95278°
Mean anomaly
92.9335°
Eccentric anomaly
92.94314°
Mean motion
3.81733 °/min
Orbital period
94.31 mins
BSTAR
0.000015724
Loading maneuver chart data...
Computing Atmospheric mass density...
Loading historical data...
Loading historical data...
Loading historical data...
Loading historical data...
Loading historical data...
Loading historical data...
Loading historical data...

Documentation

Showing up to 5 results
|